International Virtual Aviation Organisation

Russian Federation and Kazakhstan MCD

 

Карточка аэропорта UNAA

Внимание!
Информация на этой странице в стадии наполнения.
Если вы не увидели какой-то информации, или заметили неточность - пожалуйста сообщите нам!
Спасибо!
Команда RU-STAFF
Название аэропортаАбакан
Название аэропорта (англ.)Abakan
Превышение830 ft. (253 m.)
Координаты53°44.4', 91°23.118'
Высота перехода1400m
Эшелон переходаQFE>=724mm:FL070; QFE<724:FL080
Коды ответчика5430-5437
Зона ОрВДКрасноярск РПИ (UNKL)
Данные METARUNAA 211000Z 16002MPS 9999 SCT043CB 22/13 Q1005 R02/090065 NOSIG RMK QFE731
Проноз погоды (TAF)UNAA 210756Z 2109/2209 25003G10MPS 9999 BKN017CB TEMPO 2109/2113 3100 -TSRA FM211500 35003MPS 3200 BR FU SCT011 BECMG 2203/2205 9999 NSW
NOTAMshow/hide NOTAM
AWOS   TABLE

Информация о ВПП

ВПП Длина ВПП (м.) Покрытие Курс ВПП Частота ILS
02R3250Асфальтобетон21110.3
20L3250Асфальтобетон201109.9

Диспетчерские позиции

Позывной Наименование органа УВД Частота
UNAA_R_APPАбакан-Круг134.3
UNAA_TWRАбакан-Старт122.0



Спутниковое изображение